Location: Blandford
(50.8667°N, 2.1667°W)
Time: 18:53:39
(UTC+00:00)

Cosmos 2061 Rocket - Pass Details

Date: 09 April 2020
Orbit: 967 x 1012 km, 82.9° (Epoch: 23 May)

Event Time Altitude Azimuth Distance (km) Brightness Sun altitude
Rises 23:22:16 0° 351° (N) 3,685 8.2 -30.2°
Reaches altitude 10° 23:24:49 10° 355° (N) 2,739 7.2 -30.3°
Enters shadow 23:30:53 64° 68° (ENE) 1,090 4.1 -30.5°
